Tabellarische Ansicht des 25.3.2017


Die einzelnen Werte des Tages

Uhrzeit Temperatur Luftdruck Luftfeuchte Wind Hi-Wind Taupunkt THW Index Wind Chill Heat Index Solar- strahlung Regen

00:00

2.7 C

1030.1 hpa

85 %

0.0 km/h aus 115

3.2 km/h aus NNW

0.4 C

2.6 C

2.7 C

2.6 C

0 W/m

0.00 mm

00:05

2.6 C

1030.1 hpa

84 %

1.6 km/h aus 112

6.4 km/h aus NNW

0.2 C

2.5 C

2.6 C

2.5 C

0 W/m

0.00 mm

00:10

2.6 C

1030.1 hpa

84 %

1.6 km/h aus 115

3.2 km/h aus NNW

0.1 C

2.4 C

2.6 C

2.4 C

0 W/m

0.00 mm

00:15

2.5 C

1030.1 hpa

84 %

0.0 km/h aus 117

1.6 km/h aus NNW

0.1 C

2.4 C

2.5 C

2.4 C

0 W/m

0.00 mm

00:20

2.4 C

1030.1 hpa

84 %

0.0 km/h aus 116

0.0 km/h aus ---

0.0 C

2.3 C

2.4 C

2.3 C

0 W/m

0.00 mm

00:25

2.3 C

1030.1 hpa

84 %

0.0 km/h aus 117

0.0 km/h aus ---

-0.1 C

2.2 C

2.3 C

2.2 C

0 W/m

0.00 mm

00:30

2.2 C

1030.1 hpa

84 %

0.0 km/h aus 117

0.0 km/h aus ---

-0.2 C

2.1 C

2.2 C

2.1 C

0 W/m

0.00 mm

00:35

2.1 C

1030.1 hpa

84 %

0.0 km/h aus 116

0.0 km/h aus ---

-0.3 C

2.0 C

2.1 C

2.0 C

0 W/m

0.00 mm

00:40

2.1 C

1030.1 hpa

85 %

0.0 km/h aus 115

0.0 km/h aus ---

-0.2 C

1.9 C

2.1 C

1.9 C

0 W/m

0.00 mm

00:45

1.9 C

1030.1 hpa

85 %

0.0 km/h aus 114

0.0 km/h aus ---

-0.3 C

1.8 C

1.9 C

1.8 C

0 W/m

0.00 mm

00:50

1.8 C

1030.1 hpa

85 %

0.0 km/h aus 114

0.0 km/h aus ---

-0.4 C

1.7 C

1.8 C

1.7 C

0 W/m

0.00 mm

00:55

1.8 C

1030.1 hpa

84 %

0.0 km/h aus 117

0.0 km/h aus ---

-0.6 C

1.7 C

1.8 C

1.7 C

0 W/m

0.00 mm

01:00

1.7 C

1030.2 hpa

85 %

0.0 km/h aus 116

0.0 km/h aus ---

-0.6 C

1.6 C

1.7 C

1.6 C

0 W/m

0.00 mm

01:05

1.6 C

1030.2 hpa

85 %

0.0 km/h aus 117

0.0 km/h aus ---

-0.6 C

1.5 C

1.6 C

1.5 C

0 W/m

0.00 mm

01:10

1.6 C

1030.2 hpa

85 %

0.0 km/h aus 117

0.0 km/h aus ---

-0.7 C

1.4 C

1.6 C

1.4 C

0 W/m

0.00 mm

01:15

1.4 C

1030.2 hpa

84 %

0.0 km/h aus 117

0.0 km/h aus ---

-1.0 C

1.3 C

1.4 C

1.3 C

0 W/m

0.00 mm

01:20

1.4 C

1030.2 hpa

85 %

0.0 km/h aus 117

0.0 km/h aus ---

-0.9 C

1.3 C

1.4 C

1.3 C

0 W/m

0.00 mm

01:25

1.3 C

1030.2 hpa

85 %

0.0 km/h aus 114

0.0 km/h aus ---

-1.0 C

1.1 C

1.3 C

1.1 C

0 W/m

0.00 mm

01:30

1.2 C

1030.2 hpa

85 %

0.0 km/h aus 115

0.0 km/h aus ---

-1.0 C

1.1 C

1.2 C

1.1 C

0 W/m

0.00 mm

01:35

1.2 C

1030.2 hpa

85 %

0.0 km/h aus 114

0.0 km/h aus ---

-1.1 C

1.0 C

1.2 C

1.0 C

0 W/m

0.00 mm

01:40

1.1 C

1030.2 hpa

85 %

0.0 km/h aus 117

0.0 km/h aus ---

-1.1 C

0.9 C

1.1 C

0.9 C

0 W/m

0.00 mm

01:45

1.1 C

1030.2 hpa

86 %

0.0 km/h aus 117

0.0 km/h aus ---

-1.0 C

0.9 C

1.1 C

0.9 C

0 W/m

0.00 mm

01:50

1.0 C

1030.2 hpa

86 %

0.0 km/h aus 116

0.0 km/h aus ---

-1.1 C

0.8 C

1.0 C

0.8 C

0 W/m

0.00 mm

01:55

0.9 C

1030.2 hpa

87 %

0.0 km/h aus 117

0.0 km/h aus ---

-1.0 C

0.8 C

0.9 C

0.8 C

0 W/m

0.00 mm

02:00

0.9 C

1030.2 hpa

87 %

0.0 km/h aus 117

0.0 km/h aus ---

-1.0 C

0.8 C

0.9 C

0.8 C

0 W/m

0.00 mm

02:05

1.0 C

1030.2 hpa

88 %

0.0 km/h aus 116

0.0 km/h aus ---

-0.8 C

0.9 C

1.0 C

0.9 C

0 W/m

0.00 mm

02:10

1.0 C

1030.2 hpa

88 %

0.0 km/h aus 116

0.0 km/h aus ---

-0.8 C

0.9 C

1.0 C

0.9 C

0 W/m

0.00 mm

02:15

1.0 C

1030.1 hpa

88 %

0.0 km/h aus 115

0.0 km/h aus ---

-0.8 C

0.9 C

1.0 C

0.9 C

0 W/m

0.00 mm

02:20

0.9 C

1030.1 hpa

88 %

0.0 km/h aus 114

0.0 km/h aus ---

-0.8 C

0.8 C

0.9 C

0.8 C

0 W/m

0.00 mm

02:25

0.9 C

1030.1 hpa

88 %

0.0 km/h aus 115

0.0 km/h aus ---

-0.8 C

0.8 C

0.9 C

0.8 C

0 W/m

0.00 mm

02:30

0.9 C

1030.2 hpa

87 %

0.0 km/h aus 117

0.0 km/h aus ---

-1.0 C

0.8 C

0.9 C

0.8 C

0 W/m

0.00 mm

02:35

0.8 C

1030.2 hpa

88 %

0.0 km/h aus 117

0.0 km/h aus ---

-0.9 C

0.7 C

0.8 C

0.7 C

0 W/m

0.00 mm

02:40

0.8 C

1030.2 hpa

87 %

0.0 km/h aus 117

0.0 km/h aus ---

-1.1 C

0.7 C

0.8 C

0.7 C

0 W/m

0.00 mm

02:45

0.7 C

1030.1 hpa

87 %

0.0 km/h aus 117

0.0 km/h aus ---

-1.2 C

0.6 C

0.7 C

0.6 C

0 W/m

0.00 mm

02:50

0.6 C

1030.1 hpa

87 %

0.0 km/h aus 117

0.0 km/h aus ---

-1.3 C

0.5 C

0.6 C

0.5 C

0 W/m

0.00 mm

02:55

0.6 C

1030.1 hpa

87 %

0.0 km/h aus 116

0.0 km/h aus ---

-1.4 C

0.4 C

0.6 C

0.4 C

0 W/m

0.00 mm

03:00

0.5 C

1030.0 hpa

87 %

0.0 km/h aus 113

0.0 km/h aus ---

-1.4 C

0.4 C

0.5 C

0.4 C

0 W/m

0.00 mm

03:05

0.4 C

1030.0 hpa

87 %

0.0 km/h aus 115

0.0 km/h aus ---

-1.5 C

0.3 C

0.4 C

0.3 C

0 W/m

0.00 mm

03:10

0.4 C

1030.0 hpa

88 %

0.0 km/h aus 115

0.0 km/h aus ---

-1.3 C

0.3 C

0.4 C

0.3 C

0 W/m

0.00 mm

03:15

0.3 C

1029.8 hpa

88 %

0.0 km/h aus 118

0.0 km/h aus ---

-1.4 C

0.2 C

0.3 C

0.2 C

0 W/m

0.00 mm

03:20

0.3 C

1029.8 hpa

88 %

0.0 km/h aus 117

0.0 km/h aus ---

-1.4 C

0.2 C

0.3 C

0.2 C

0 W/m

0.00 mm

03:25

0.3 C

1029.8 hpa

88 %

0.0 km/h aus 117

0.0 km/h aus ---

-1.5 C

0.2 C

0.3 C

0.2 C

0 W/m

0.00 mm

03:30

0.2 C

1029.7 hpa

88 %

0.0 km/h aus 116

0.0 km/h aus ---

-1.5 C

0.1 C

0.2 C

0.1 C

0 W/m

0.00 mm

03:35

0.2 C

1029.7 hpa

88 %

0.0 km/h aus 117

0.0 km/h aus ---

-1.5 C

0.1 C

0.2 C

0.1 C

0 W/m

0.00 mm

03:40

0.2 C

1029.7 hpa

88 %

0.0 km/h aus 117

0.0 km/h aus ---

-1.6 C

0.1 C

0.2 C

0.1 C

0 W/m

0.00 mm

03:45

0.1 C

1029.6 hpa

88 %

0.0 km/h aus 113

0.0 km/h aus ---

-1.6 C

0.0 C

0.1 C

0.0 C

0 W/m

0.00 mm

03:50

0.1 C

1029.6 hpa

89 %

0.0 km/h aus 115

0.0 km/h aus ---

-1.5 C

0.0 C

0.1 C

0.0 C

0 W/m

0.00 mm

03:55

0.1 C

1029.6 hpa

89 %

0.0 km/h aus 114

0.0 km/h aus ---

-1.5 C

0.0 C

0.1 C

0.0 C

0 W/m

0.00 mm

04:00

0.1 C

1029.5 hpa

89 %

0.0 km/h aus 116

0.0 km/h aus ---

-1.5 C

0.0 C

0.1 C

0.0 C

0 W/m

0.00 mm

04:05

0.1 C

1029.5 hpa

89 %

0.0 km/h aus 116

0.0 km/h aus ---

-1.5 C

0.0 C

0.1 C

0.0 C

0 W/m

0.00 mm

04:10

0.1 C

1029.5 hpa

89 %

0.0 km/h aus 117

0.0 km/h aus ---

-1.5 C

0.0 C

0.1 C

0.0 C

0 W/m

0.00 mm

04:15

0.0 C

1029.3 hpa

89 %

0.0 km/h aus 117

0.0 km/h aus ---

-1.6 C

-0.1 C

0.0 C

-0.1 C

0 W/m

0.00 mm

04:20

-0.1 C

1029.3 hpa

89 %

0.0 km/h aus 118

0.0 km/h aus ---

-1.7 C

-0.1 C

-0.1 C

-0.1 C

0 W/m

0.00 mm

04:25

-0.1 C

1029.3 hpa

89 %

0.0 km/h aus 117

0.0 km/h aus ---

-1.7 C

-0.1 C

-0.1 C

-0.1 C

0 W/m

0.00 mm

04:30

-0.1 C

1029.2 hpa

89 %

0.0 km/h aus 117

0.0 km/h aus ---

-1.7 C

-0.2 C

-0.1 C

-0.2 C

0 W/m

0.00 mm

04:35

-0.2 C

1029.2 hpa

89 %

0.0 km/h aus 113

0.0 km/h aus ---

-1.8 C

-0.2 C

-0.2 C

-0.2 C

0 W/m

0.00 mm

04:40

-0.3 C

1029.2 hpa

89 %

0.0 km/h aus 115

0.0 km/h aus ---

-1.9 C

-0.4 C

-0.3 C

-0.4 C

0 W/m

0.00 mm

04:45

-0.3 C

1029.2 hpa

89 %

0.0 km/h aus 113

0.0 km/h aus ---

-1.9 C

-0.4 C

-0.3 C

-0.4 C

0 W/m

0.00 mm

04:50

-0.4 C

1029.2 hpa

89 %

0.0 km/h aus 117

0.0 km/h aus ---

-2.0 C

-0.5 C

-0.4 C

-0.5 C

0 W/m

0.00 mm

04:55

-0.4 C

1029.2 hpa

89 %

0.0 km/h aus 116

0.0 km/h aus ---

-2.0 C

-0.6 C

-0.4 C

-0.6 C

0 W/m

0.00 mm

05:00

-0.4 C

1029.1 hpa

89 %

0.0 km/h aus 116

0.0 km/h aus ---

-2.0 C

-0.6 C

-0.4 C

-0.6 C

0 W/m

0.00 mm

05:05

-0.5 C

1029.1 hpa

89 %

0.0 km/h aus 115

0.0 km/h aus ---

-2.1 C

-0.6 C

-0.5 C

-0.6 C

0 W/m

0.00 mm

05:10

-0.5 C

1029.1 hpa

90 %

0.0 km/h aus 117

0.0 km/h aus ---

-1.9 C

-0.6 C

-0.5 C

-0.6 C

0 W/m

0.00 mm

05:15

-0.5 C

1029.2 hpa

90 %

0.0 km/h aus 116

0.0 km/h aus ---

-1.9 C

-0.6 C

-0.5 C

-0.6 C

0 W/m

0.00 mm

05:20

-0.6 C

1029.2 hpa

90 %

0.0 km/h aus 116

0.0 km/h aus ---

-2.0 C

-0.7 C

-0.6 C

-0.7 C

0 W/m

0.00 mm

05:25

-0.6 C

1029.2 hpa

90 %

0.0 km/h aus 115

0.0 km/h aus ---

-2.0 C

-0.7 C

-0.6 C

-0.7 C

0 W/m

0.00 mm

05:30

-0.6 C

1029.2 hpa

90 %

0.0 km/h aus 114

0.0 km/h aus ---

-2.0 C

-0.7 C

-0.6 C

-0.7 C

0 W/m

0.00 mm

05:35

-0.6 C

1029.2 hpa

90 %

0.0 km/h aus 114

0.0 km/h aus ---

-2.0 C

-0.7 C

-0.6 C

-0.7 C

0 W/m

0.00 mm

05:40

-0.7 C

1029.2 hpa

90 %

0.0 km/h aus 116

0.0 km/h aus ---

-2.1 C

-0.8 C

-0.7 C

-0.8 C

0 W/m

0.00 mm

05:45

-0.7 C

1029.2 hpa

90 %

0.0 km/h aus 117

0.0 km/h aus ---

-2.1 C

-0.8 C

-0.7 C

-0.8 C

0 W/m

0.00 mm

05:50

-0.7 C

1029.2 hpa

90 %

0.0 km/h aus 116

0.0 km/h aus ---

-2.2 C

-0.8 C

-0.7 C

-0.8 C

0 W/m

0.00 mm

05:55

-0.8 C

1029.2 hpa

90 %

0.0 km/h aus 115

0.0 km/h aus ---

-2.2 C

-0.9 C

-0.8 C

-0.9 C

0 W/m

0.00 mm

06:00

-0.8 C

1029.1 hpa

90 %

0.0 km/h aus 117

0.0 km/h aus ---

-2.2 C

-0.9 C

-0.8 C

-0.9 C

0 W/m

0.00 mm

06:05

-0.8 C

1029.1 hpa

90 %

0.0 km/h aus 116

0.0 km/h aus ---

-2.2 C

-0.9 C

-0.8 C

-0.9 C

0 W/m

0.00 mm

06:10

-0.8 C

1029.1 hpa

90 %

0.0 km/h aus 117

0.0 km/h aus ---

-2.3 C

-0.9 C

-0.8 C

-0.9 C

0 W/m

0.00 mm

06:15

-0.8 C

1029.1 hpa

90 %

0.0 km/h aus 114

0.0 km/h aus ---

-2.3 C

-0.9 C

-0.8 C

-0.9 C

1 W/m

0.00 mm

06:20

-0.9 C

1029.1 hpa

90 %

0.0 km/h aus 114

0.0 km/h aus ---

-2.3 C

-1.0 C

-0.9 C

-1.0 C

7 W/m

0.00 mm

06:25

-0.9 C

1029.1 hpa

90 %

0.0 km/h aus 114

0.0 km/h aus ---

-2.4 C

-1.1 C

-0.9 C

-1.1 C

11 W/m

0.00 mm

06:30

-0.9 C

1029.2 hpa

91 %

0.0 km/h aus 117

0.0 km/h aus ---

-2.2 C

-1.1 C

-0.9 C

-1.1 C

16 W/m

0.00 mm

06:35

-0.9 C

1029.2 hpa

91 %

0.0 km/h aus 116

0.0 km/h aus ---

-2.2 C

-1.1 C

-0.9 C

-1.1 C

21 W/m

0.00 mm

06:40

-0.9 C

1029.2 hpa

91 %

0.0 km/h aus 117

0.0 km/h aus ---

-2.2 C

-1.1 C

-0.9 C

-1.1 C

26 W/m

0.00 mm

06:45

-0.9 C

1029.2 hpa

91 %

0.0 km/h aus 117

0.0 km/h aus ---

-2.2 C

-1.0 C

-0.9 C

-1.0 C

32 W/m

0.00 mm

06:50

-0.9 C

1029.2 hpa

91 %

0.0 km/h aus 117

0.0 km/h aus ---

-2.2 C

-1.0 C

-0.9 C

-1.0 C

37 W/m

0.00 mm

06:55

-0.8 C

1029.2 hpa

91 %

0.0 km/h aus 116

0.0 km/h aus ---

-2.1 C

-0.9 C

-0.8 C

-0.9 C

43 W/m

0.00 mm

07:00

-0.8 C

1029.3 hpa

92 %

0.0 km/h aus 116

0.0 km/h aus ---

-1.9 C

-0.9 C

-0.8 C

-0.9 C

49 W/m

0.00 mm

07:05

-0.7 C

1029.3 hpa

92 %

0.0 km/h aus 115

0.0 km/h aus ---

-1.9 C

-0.8 C

-0.7 C

-0.8 C

54 W/m

0.00 mm

07:10

-0.6 C

1029.3 hpa

92 %

0.0 km/h aus 114

0.0 km/h aus ---

-1.7 C

-0.7 C

-0.6 C

-0.7 C

59 W/m

0.00 mm

07:15

-0.4 C

1029.3 hpa

93 %

0.0 km/h aus 113

0.0 km/h aus ---

-1.4 C

-0.5 C

-0.4 C

-0.5 C

62 W/m

0.00 mm

07:20

-0.3 C

1029.3 hpa

93 %

0.0 km/h aus 116

0.0 km/h aus ---

-1.3 C

-0.3 C

-0.3 C

-0.3 C

66 W/m

0.00 mm

07:25

-0.2 C

1029.3 hpa

93 %

0.0 km/h aus 117

0.0 km/h aus ---

-1.2 C

-0.2 C

-0.2 C

-0.2 C

70 W/m

0.00 mm

07:30

-0.1 C

1029.3 hpa

93 %

0.0 km/h aus 117

0.0 km/h aus ---

-1.1 C

-0.1 C

-0.1 C

-0.1 C

79 W/m

0.00 mm

07:35

0.2 C

1029.3 hpa

93 %

0.0 km/h aus 117

0.0 km/h aus ---

-0.8 C

0.1 C

0.2 C

0.1 C

109 W/m

0.00 mm

07:40

0.3 C

1029.3 hpa

94 %

0.0 km/h aus 117

0.0 km/h aus ---

-0.5 C

0.3 C

0.3 C

0.3 C

142 W/m

0.00 mm

07:45

0.7 C

1029.5 hpa

94 %

0.0 km/h aus 117

0.0 km/h aus ---

-0.1 C

0.7 C

0.7 C

0.7 C

153 W/m

0.00 mm

07:50

1.2 C

1029.5 hpa

94 %

0.0 km/h aus 115

0.0 km/h aus ---

0.3 C

1.1 C

1.2 C

1.1 C

166 W/m

0.00 mm

07:55

1.6 C

1029.5 hpa

95 %

0.0 km/h aus 114

1.6 km/h aus NNW

0.9 C

1.6 C

1.6 C

1.6 C

187 W/m

0.00 mm

08:00

2.0 C

1029.5 hpa

95 %

0.0 km/h aus 116

0.0 km/h aus ---

1.3 C

2.0 C

2.0 C

2.0 C

202 W/m

0.00 mm

08:05

2.6 C

1029.5 hpa

95 %

0.0 km/h aus 117

0.0 km/h aus ---

1.8 C

2.6 C

2.6 C

2.6 C

204 W/m

0.00 mm

08:10

3.1 C

1029.5 hpa

94 %

0.0 km/h aus 117

0.0 km/h aus ---

2.2 C

3.1 C

3.1 C

3.1 C

214 W/m

0.00 mm

08:15

3.4 C

1029.6 hpa

92 %

0.0 km/h aus 117

1.6 km/h aus NNW

2.2 C

3.3 C

3.4 C

3.3 C

207 W/m

0.00 mm

08:20

3.6 C

1029.6 hpa

90 %

0.0 km/h aus 117

3.2 km/h aus NNW

2.1 C

3.6 C

3.6 C

3.6 C

222 W/m

0.00 mm

08:25

3.8 C

1029.6 hpa

89 %

1.6 km/h aus 113

3.2 km/h aus NNW

2.2 C

3.8 C

3.8 C

3.8 C

251 W/m

0.00 mm

08:30

4.3 C

1029.6 hpa

88 %

0.0 km/h aus 115

3.2 km/h aus NNW

2.5 C

4.2 C

4.3 C

4.2 C

278 W/m

0.00 mm

08:35

4.4 C

1029.6 hpa

86 %

0.0 km/h aus 116

3.2 km/h aus NNW

2.3 C

4.3 C

4.4 C

4.3 C

294 W/m

0.00 mm

08:40

4.6 C

1029.6 hpa

86 %

0.0 km/h aus 117

1.6 km/h aus NNW

2.4 C

4.4 C

4.6 C

4.4 C

321 W/m

0.00 mm

08:45

5.0 C

1029.5 hpa

85 %

1.6 km/h aus 118

3.2 km/h aus NNW

2.7 C

4.9 C

5.0 C

4.9 C

330 W/m

0.00 mm

08:50

5.1 C

1029.5 hpa

85 %

0.0 km/h aus 116

3.2 km/h aus NNW

2.8 C

5.0 C

5.1 C

5.0 C

328 W/m

0.00 mm

08:55

5.1 C

1029.5 hpa

82 %

1.6 km/h aus 113

3.2 km/h aus NNW

2.3 C

4.9 C

5.1 C

4.9 C

330 W/m

0.00 mm

09:00

5.3 C

1029.5 hpa

82 %

0.0 km/h aus 116

1.6 km/h aus NNW

2.5 C

5.2 C

5.3 C

5.2 C

366 W/m

0.00 mm

09:05

5.8 C

1029.5 hpa

83 %

0.0 km/h aus 117

1.6 km/h aus NNW

3.1 C

5.7 C

5.8 C

5.7 C

391 W/m

0.00 mm

09:10

6.0 C

1029.5 hpa

80 %

0.0 km/h aus 117

3.2 km/h aus NNW

2.8 C

5.8 C

6.0 C

5.8 C

394 W/m

0.00 mm

09:15

6.4 C

1029.4 hpa

80 %

0.0 km/h aus 115

3.2 km/h aus NNW

3.2 C

6.3 C

6.4 C

6.3 C

395 W/m

0.00 mm

09:20

6.7 C

1029.4 hpa

79 %

1.6 km/h aus 115

3.2 km/h aus NNW

3.3 C

6.6 C

6.7 C

6.6 C

398 W/m

0.00 mm

09:25

6.7 C

1029.4 hpa

77 %

1.6 km/h aus 115

4.8 km/h aus NNW

2.9 C

6.5 C

6.7 C

6.5 C

411 W/m

0.00 mm

09:30

6.8 C

1029.5 hpa

76 %

3.2 km/h aus 116

4.8 km/h aus NNW

2.9 C

6.6 C

6.8 C

6.6 C

442 W/m

0.00 mm

09:35

7.1 C

1029.5 hpa

74 %

4.8 km/h aus 117

8.0 km/h aus NNW

2.7 C

6.3 C

6.5 C

6.8 C

458 W/m

0.00 mm

09:40

7.4 C

1029.5 hpa

75 %

3.2 km/h aus 115

6.4 km/h aus NNW

3.3 C

7.2 C

7.4 C

7.2 C

504 W/m

0.00 mm

09:45

7.5 C

1029.4 hpa

75 %

3.2 km/h aus 115

6.4 km/h aus NW

3.4 C

7.3 C

7.5 C

7.3 C

512 W/m

0.00 mm

09:50

7.9 C

1029.4 hpa

71 %

3.2 km/h aus 116

8.0 km/h aus NNW

3.0 C

7.6 C

7.9 C

7.6 C

460 W/m

0.00 mm

09:55

7.8 C

1029.4 hpa

72 %

3.2 km/h aus 116

8.0 km/h aus NW

3.0 C

7.5 C

7.8 C

7.5 C

432 W/m

0.00 mm

10:00

8.2 C

1029.2 hpa

71 %

3.2 km/h aus 117

6.4 km/h aus NW

3.3 C

7.9 C

8.2 C

7.9 C

488 W/m

0.00 mm

10:05

8.5 C

1029.2 hpa

70 %

3.2 km/h aus 117

6.4 km/h aus NW

3.3 C

8.2 C

8.5 C

8.2 C

530 W/m

0.00 mm

10:10

8.8 C

1029.2 hpa

69 %

3.2 km/h aus 115

4.8 km/h aus WNW

3.4 C

8.5 C

8.8 C

8.5 C

540 W/m

0.00 mm

10:15

8.9 C

1029.1 hpa

65 %

1.6 km/h aus 114

4.8 km/h aus NW

2.7 C

8.5 C

8.9 C

8.5 C

556 W/m

0.00 mm

10:20

8.8 C

1029.1 hpa

64 %

1.6 km/h aus 116

4.8 km/h aus NNW

2.4 C

8.4 C

8.8 C

8.4 C

559 W/m

0.00 mm

10:25

8.8 C

1029.1 hpa

64 %

0.0 km/h aus 117

3.2 km/h aus NNW

2.3 C

8.4 C

8.8 C

8.4 C

557 W/m

0.00 mm

10:30

9.1 C

1029.1 hpa

63 %

1.6 km/h aus 117

4.8 km/h aus NNW

2.4 C

8.7 C

9.1 C

8.7 C

543 W/m

0.00 mm

10:35

9.5 C

1029.1 hpa

61 %

1.6 km/h aus 117

3.2 km/h aus NW

2.3 C

9.1 C

9.5 C

9.1 C

583 W/m

0.00 mm

10:40

9.9 C

1029.1 hpa

60 %

3.2 km/h aus 114

6.4 km/h aus NW

2.5 C

9.5 C

9.9 C

9.5 C

583 W/m

0.00 mm

10:45

10.2 C

1028.8 hpa

58 %

3.2 km/h aus 115

6.4 km/h aus NNW

2.3 C

9.7 C

10.2 C

9.7 C

583 W/m

0.00 mm

10:50

10.3 C

1028.8 hpa

59 %

4.8 km/h aus 117

8.0 km/h aus N

2.7 C

9.7 C

10.2 C

9.8 C

464 W/m

0.00 mm

10:55

10.2 C

1028.8 hpa

55 %

3.2 km/h aus 117

4.8 km/h aus NNW

1.5 C

9.6 C

10.2 C

9.6 C

535 W/m

0.00 mm

11:00

10.6 C

1028.8 hpa

51 %

4.8 km/h aus 116

9.7 km/h aus N

0.8 C

9.7 C

10.4 C

9.8 C

663 W/m

0.00 mm

11:05

11.0 C

1028.8 hpa

47 %

4.8 km/h aus 114

8.0 km/h aus NW

0.1 C

10.1 C

10.9 C

10.1 C

653 W/m

0.00 mm

11:10

10.8 C

1028.8 hpa

34 %

4.8 km/h aus 117

9.7 km/h aus NNW

-4.5 C

9.6 C

10.7 C

9.7 C

482 W/m

0.00 mm

11:15

10.4 C

1028.6 hpa

38 %

4.8 km/h aus 117

9.7 km/h aus N

-3.3 C

9.4 C

10.3 C

9.5 C

323 W/m

0.00 mm

11:20

10.7 C

1028.6 hpa

41 %

6.4 km/h aus 117

11.3 km/h aus NNW

-2.0 C

9.3 C

10.2 C

9.8 C

625 W/m

0.00 mm

11:25

10.6 C

1028.6 hpa

38 %

6.4 km/h aus 116

9.7 km/h aus NW

-3.2 C

9.0 C

10.0 C

9.6 C

414 W/m

0.00 mm

11:30

10.3 C

1028.5 hpa

37 %

4.8 km/h aus 115

16.1 km/h aus N

-3.8 C

9.2 C

10.2 C

9.3 C

369 W/m

0.00 mm

11:35

10.7 C

1028.5 hpa

38 %

8.0 km/h aus 117

17.7 km/h aus NNW

-3.1 C

8.8 C

9.8 C

9.7 C

602 W/m

0.00 mm

11:40

10.9 C

1028.5 hpa

35 %

4.8 km/h aus 117

9.7 km/h aus NNW

-3.9 C

9.8 C

10.9 C

9.8 C

628 W/m

0.00 mm

11:45

11.2 C

1028.2 hpa

41 %

4.8 km/h aus 117

9.7 km/h aus NW

-1.6 C

10.1 C

11.2 C

10.2 C

643 W/m

0.00 mm

11:50

11.7 C

1028.2 hpa

37 %

8.0 km/h aus 115

20.9 km/h aus N

-2.6 C

9.7 C

10.9 C

10.4 C

650 W/m

0.00 mm

11:55

11.5 C

1028.2 hpa

39 %

4.8 km/h aus 115

8.0 km/h aus NNW

-2.0 C

10.3 C

11.5 C

10.3 C

654 W/m

0.00 mm

12:00

11.8 C

1028.1 hpa

37 %

6.4 km/h aus 117

11.3 km/h aus NW

-2.4 C

10.2 C

11.5 C

10.6 C

710 W/m

0.00 mm

12:05

12.1 C

1028.1 hpa

40 %

6.4 km/h aus 117

12.9 km/h aus NW

-1.2 C

10.5 C

11.7 C

10.8 C

720 W/m

0.00 mm

12:10

12.1 C

1028.1 hpa

40 %

9.7 km/h aus 116

16.1 km/h aus NNW

-1.2 C

9.9 C

11.1 C

10.8 C

691 W/m

0.00 mm

12:15

12.0 C

1027.8 hpa

40 %

6.4 km/h aus 113

14.5 km/h aus NNW

-1.2 C

10.4 C

11.7 C

10.8 C

670 W/m

0.00 mm

12:20

12.2 C

1027.8 hpa

43 %

6.4 km/h aus 116

11.3 km/h aus N

-0.1 C

10.7 C

11.9 C

11.0 C

694 W/m

0.00 mm

12:25

11.9 C

1027.8 hpa

37 %

8.0 km/h aus 116

20.9 km/h aus N

-2.3 C

10.0 C

11.3 C

10.7 C

626 W/m

0.00 mm

12:30

11.9 C

1027.6 hpa

34 %

8.0 km/h aus 116

19.3 km/h aus N

-3.5 C

9.9 C

11.3 C

10.6 C

641 W/m

0.00 mm

12:35

11.9 C

1027.6 hpa

32 %

8.0 km/h aus 117

19.3 km/h aus WNW

-4.3 C

9.8 C

11.2 C

10.4 C

483 W/m

0.00 mm

12:40

12.0 C

1027.6 hpa

34 %

9.7 km/h aus 114

20.9 km/h aus NNW

-3.4 C

9.7 C

11.1 C

10.6 C

532 W/m

0.00 mm

12:45

12.4 C

1027.5 hpa

34 %

8.0 km/h aus 117

16.1 km/h aus W

-3.0 C

10.4 C

11.9 C

11.0 C

642 W/m

0.00 mm

12:50

12.3 C

1027.5 hpa

35 %

9.7 km/h aus 117

19.3 km/h aus NNW

-2.7 C

10.1 C

11.4 C

10.9 C

655 W/m

0.00 mm

12:55

12.2 C

1027.5 hpa

35 %

6.4 km/h aus 117

16.1 km/h aus NW

-2.8 C

10.6 C

11.9 C

10.8 C

637 W/m

0.00 mm

13:00

12.8 C

1027.2 hpa

40 %

4.8 km/h aus 117

14.5 km/h aus NNW

-0.5 C

11.6 C

12.8 C

11.6 C

640 W/m

0.00 mm

13:05

12.6 C

1027.2 hpa

35 %

11.3 km/h aus 115

22.5 km/h aus N

-2.5 C

10.1 C

11.6 C

11.2 C

658 W/m

0.00 mm

13:10

12.7 C

1027.2 hpa

36 %

11.3 km/h aus 116

20.9 km/h aus N

-2.0 C

10.3 C

11.7 C

11.3 C

645 W/m

0.00 mm

13:15

12.3 C

1027.1 hpa

33 %

9.7 km/h aus 117

19.3 km/h aus NNW

-3.6 C

9.9 C

11.4 C

10.8 C

587 W/m

0.00 mm

13:20

12.7 C

1027.1 hpa

34 %

8.0 km/h aus 116

16.1 km/h aus N

-2.8 C

10.7 C

12.2 C

11.2 C

624 W/m

0.00 mm

13:25

12.8 C

1027.1 hpa

36 %

11.3 km/h aus 114

20.9 km/h aus N

-1.9 C

10.4 C

11.8 C

11.4 C

627 W/m

0.00 mm

13:30

13.1 C

1026.9 hpa

35 %

8.0 km/h aus 116

14.5 km/h aus NE

-2.1 C

11.1 C

12.6 C

11.6 C

630 W/m

0.00 mm

13:35

12.9 C

1026.9 hpa

36 %

6.4 km/h aus 117

16.1 km/h aus NNW

-1.8 C

11.2 C

12.7 C

11.4 C

595 W/m

0.00 mm

13:40

12.9 C

1026.9 hpa

38 %

8.0 km/h aus 117

16.1 km/h aus NNW

-1.1 C

11.0 C

12.4 C

11.5 C

588 W/m

0.00 mm

13:45

13.3 C

1026.6 hpa

36 %

6.4 km/h aus 116

16.1 km/h aus N

-1.5 C

11.7 C

13.2 C

11.8 C

593 W/m

0.00 mm

13:50

13.0 C

1026.6 hpa

37 %

8.0 km/h aus 114

19.3 km/h aus N

-1.4 C

11.1 C

12.6 C

11.6 C

563 W/m

0.00 mm

13:55

12.9 C

1026.6 hpa

35 %

8.0 km/h aus 117

17.7 km/h aus NNE

-2.2 C

11.0 C

12.5 C

11.4 C

544 W/m

0.00 mm

14:00

12.8 C

1026.3 hpa

38 %

8.0 km/h aus 116

11.3 km/h aus WNW

-1.2 C

11.0 C

12.3 C

11.5 C

510 W/m

0.00 mm

14:05

13.0 C

1026.3 hpa

39 %

6.4 km/h aus 116

11.3 km/h aus N

-0.6 C

11.5 C

12.8 C

11.7 C

486 W/m

0.00 mm

14:10

13.1 C

1026.3 hpa

37 %

9.7 km/h aus 113

20.9 km/h aus NNW

-1.3 C

10.9 C

12.3 C

11.6 C

510 W/m

0.00 mm

14:15

12.9 C

1026.0 hpa

39 %

8.0 km/h aus 116

16.1 km/h aus NW

-0.7 C

11.2 C

12.5 C

11.6 C

508 W/m

0.00 mm

14:20

13.4 C

1026.0 hpa

38 %

6.4 km/h aus 116

14.5 km/h aus N

-0.7 C

11.8 C

13.3 C

11.9 C

521 W/m

0.00 mm

14:25

13.4 C

1026.0 hpa

39 %

8.0 km/h aus 116

17.7 km/h aus NNE

-0.3 C

11.6 C

13.1 C

12.0 C

536 W/m

0.00 mm

14:30

13.4 C

1025.8 hpa

36 %

6.4 km/h aus 116

11.3 km/h aus NNW

-1.4 C

11.8 C

13.3 C

11.9 C

527 W/m

0.00 mm

14:35

13.6 C

1025.8 hpa

37 %

4.8 km/h aus 114

9.7 km/h aus N

-0.8 C

12.1 C

13.6 C

12.1 C

522 W/m

0.00 mm

14:40

13.3 C

1025.8 hpa

36 %

9.7 km/h aus 117

17.7 km/h aus WNW

-1.4 C

11.2 C

12.7 C

11.8 C

515 W/m

0.00 mm

14:45

13.4 C

1025.6 hpa

35 %

9.7 km/h aus 116

19.3 km/h aus NNW

-1.8 C

11.2 C

12.7 C

11.8 C

496 W/m

0.00 mm

14:50

13.3 C

1025.6 hpa

38 %

9.7 km/h aus 113

17.7 km/h aus NW

-0.8 C

11.2 C

12.6 C

11.8 C

494 W/m

0.00 mm

14:55

13.3 C

1025.6 hpa

38 %

8.0 km/h aus 110

16.1 km/h aus N

-0.7 C

11.5 C

12.9 C

11.9 C

456 W/m

0.00 mm

15:00

13.3 C

1025.4 hpa

35 %

8.0 km/h aus 111

16.1 km/h aus N

-1.9 C

11.3 C

12.9 C

11.7 C

444 W/m

0.00 mm

15:05

13.3 C

1025.4 hpa

35 %

11.3 km/h aus 106

19.3 km/h aus NNW

-1.8 C

10.9 C

12.4 C

11.8 C

465 W/m

0.00 mm

15:10

13.2 C

1025.4 hpa

36 %

6.4 km/h aus 108

14.5 km/h aus NNW

-1.5 C

11.6 C

13.1 C

11.7 C

456 W/m

0.00 mm

15:15

13.3 C

1025.0 hpa

36 %

6.4 km/h aus 111

14.5 km/h aus NW

-1.5 C

11.7 C

13.2 C

11.8 C

440 W/m

0.00 mm

15:20

13.3 C

1025.0 hpa

38 %

8.0 km/h aus 112

12.9 km/h aus NW

-0.7 C

11.5 C

12.9 C

11.9 C

436 W/m

0.00 mm

15:25

13.2 C

1025.0 hpa

36 %

8.0 km/h aus 114

19.3 km/h aus NNW

-1.5 C

11.3 C

12.8 C

11.7 C

414 W/m

0.00 mm

15:30

13.3 C

1024.8 hpa

38 %

11.3 km/h aus 115

27.4 km/h aus NNW

-0.8 C

10.9 C

12.4 C

11.8 C

398 W/m

0.00 mm

15:35

13.0 C

1024.8 hpa

39 %

11.3 km/h aus 116

19.3 km/h aus NNW

-0.6 C

10.7 C

12.1 C

11.7 C

366 W/m

0.00 mm

15:40

13.2 C

1024.8 hpa

39 %

8.0 km/h aus 116

16.1 km/h aus NNE

-0.5 C

11.4 C

12.8 C

11.8 C

363 W/m

0.00 mm

15:45

13.1 C

1024.5 hpa

40 %

8.0 km/h aus 114

16.1 km/h aus NW

-0.3 C

11.3 C

12.6 C

11.7 C

347 W/m

0.00 mm

15:50

13.1 C

1024.5 hpa

39 %

8.0 km/h aus 117

16.1 km/h aus NW

-0.6 C

11.2 C

12.6 C

11.7 C

346 W/m

0.00 mm

15:55

13.2 C

1024.5 hpa

39 %

6.4 km/h aus 115

16.1 km/h aus WNW

-0.5 C

11.7 C

13.1 C

11.8 C

332 W/m

0.00 mm

16:00

13.0 C

1024.4 hpa

38 %

8.0 km/h aus 116

16.1 km/h aus NW

-1.0 C

11.2 C

12.6 C

11.6 C

340 W/m

0.00 mm

16:05

13.1 C

1024.4 hpa

38 %

11.3 km/h aus 113

19.3 km/h aus N

-1.0 C

10.7 C

12.1 C

11.7 C

326 W/m

0.00 mm

16:10

12.8 C

1024.4 hpa

39 %

6.4 km/h aus 115

16.1 km/h aus NW

-0.8 C

11.2 C

12.6 C

11.4 C

306 W/m

0.00 mm

16:15

13.0 C

1024.2 hpa

39 %

8.0 km/h aus 117

17.7 km/h aus NNE

-0.6 C

11.2 C

12.6 C

11.7 C

291 W/m

0.00 mm

16:20

12.8 C

1024.2 hpa

42 %

8.0 km/h aus 117

19.3 km/h aus N

0.2 C

11.1 C

12.3 C

11.6 C

280 W/m

0.00 mm

16:25

12.8 C

1024.2 hpa

39 %

8.0 km/h aus 117

16.1 km/h aus N

-0.8 C

10.9 C

12.3 C

11.4 C

275 W/m

0.00 mm

16:30

12.8 C

1023.9 hpa

42 %

8.0 km/h aus 114

14.5 km/h aus WNW

0.2 C

11.1 C

12.3 C

11.6 C

268 W/m

0.00 mm

16:35

12.8 C

1023.9 hpa

40 %

9.7 km/h aus 116

20.9 km/h aus NNW

-0.5 C

10.8 C

12.1 C

11.6 C

248 W/m

0.00 mm

16:40

12.7 C

1023.9 hpa

40 %

11.3 km/h aus 117

17.7 km/h aus NNW

-0.6 C

10.4 C

11.7 C

11.4 C

234 W/m

0.00 mm

16:45

12.7 C

1023.9 hpa

43 %

8.0 km/h aus 116

16.1 km/h aus N

0.4 C

11.0 C

12.2 C

11.5 C

222 W/m

0.00 mm

16:50

12.6 C

1023.9 hpa

41 %

8.0 km/h aus 117

19.3 km/h aus NNW

-0.3 C

10.8 C

12.1 C

11.4 C

205 W/m

0.00 mm

16:55

12.5 C

1023.9 hpa

42 %

8.0 km/h aus 114

17.7 km/h aus NNW

-0.1 C

10.7 C

11.9 C

11.3 C

193 W/m

0.00 mm

17:00

12.5 C

1023.9 hpa

42 %

8.0 km/h aus 117

14.5 km/h aus NNW

-0.1 C

10.7 C

11.9 C

11.3 C

177 W/m

0.00 mm

17:05

12.4 C

1023.9 hpa

43 %

9.7 km/h aus 116

17.7 km/h aus NNW

0.1 C

10.4 C

11.6 C

11.2 C

159 W/m

0.00 mm

17:10

12.3 C

1023.9 hpa

44 %

9.7 km/h aus 115

17.7 km/h aus N

0.4 C

10.3 C

11.4 C

11.2 C

145 W/m

0.00 mm

17:15

12.3 C

1023.7 hpa

45 %

8.0 km/h aus 117

16.1 km/h aus NNW

0.7 C

10.6 C

11.7 C

11.2 C

136 W/m

0.00 mm

17:20

12.3 C

1023.7 hpa

46 %

4.8 km/h aus 113

11.3 km/h aus NNW

1.0 C

11.2 C

12.3 C

11.2 C

120 W/m

0.00 mm

17:25

12.3 C

1023.7 hpa

46 %

6.4 km/h aus 117

9.7 km/h aus NNE

1.0 C

10.9 C

12.1 C

11.2 C

104 W/m

0.00 mm

17:30

12.2 C

1023.6 hpa

47 %

8.0 km/h aus 117

14.5 km/h aus NNW

1.2 C

10.5 C

11.6 C

11.1 C

92 W/m

0.00 mm

17:35

12.1 C

1023.6 hpa

46 %

8.0 km/h aus 115

17.7 km/h aus N

0.8 C

10.3 C

11.4 C

11.0 C

79 W/m

0.00 mm

17:40

11.9 C

1023.6 hpa

48 %

9.7 km/h aus 114

16.1 km/h aus N

1.2 C

10.0 C

10.9 C

10.9 C

69 W/m

0.00 mm

17:45

11.8 C

1023.9 hpa

48 %

9.7 km/h aus 115

17.7 km/h aus NNW

1.1 C

9.8 C

10.8 C

10.8 C

58 W/m

0.00 mm

17:50

11.6 C

1023.9 hpa

49 %

8.0 km/h aus 117

16.1 km/h aus NNW

1.2 C

9.9 C

10.8 C

10.7 C

49 W/m

0.00 mm

17:55

11.5 C

1023.9 hpa

50 %

6.4 km/h aus 117

9.7 km/h aus N

1.4 C

10.2 C

11.1 C

10.6 C

41 W/m

0.00 mm

18:00

11.4 C

1023.6 hpa

50 %

6.4 km/h aus 117

14.5 km/h aus NNW

1.3 C

10.2 C

11.0 C

10.6 C

33 W/m

0.00 mm

18:05

11.2 C

1023.6 hpa

52 %

4.8 km/h aus 115

14.5 km/h aus N

1.7 C

10.4 C

11.2 C

10.4 C

30 W/m

0.00 mm

18:10

11.2 C

1023.6 hpa

51 %

4.8 km/h aus 115

9.7 km/h aus NNW

1.4 C

10.3 C

11.1 C

10.3 C

27 W/m

0.00 mm

18:15

11.2 C

1023.5 hpa

52 %

4.8 km/h aus 117

11.3 km/h aus N

1.7 C

10.3 C

11.1 C

10.4 C

24 W/m

0.00 mm

18:20

11.2 C

1023.5 hpa

52 %

4.8 km/h aus 118

8.0 km/h aus NNW

1.7 C

10.4 C

11.2 C

10.4 C

19 W/m

0.00 mm

18:25

11.2 C

1023.5 hpa

53 %

4.8 km/h aus 117

9.7 km/h aus N

1.9 C

10.4 C

11.1 C

10.4 C

14 W/m

0.00 mm

18:30

11.0 C

1023.4 hpa

53 %

4.8 km/h aus 115

8.0 km/h aus N

1.8 C

10.2 C

10.9 C

10.3 C

10 W/m

0.00 mm

18:35

10.9 C

1023.4 hpa

53 %

3.2 km/h aus 113

6.4 km/h aus N

1.7 C

10.2 C

10.9 C

10.2 C

7 W/m

0.00 mm

18:40

10.8 C

1023.4 hpa

54 %

1.6 km/h aus 117

3.2 km/h aus N

1.9 C

10.2 C

10.8 C

10.2 C

5 W/m

0.00 mm

18:45

10.7 C

1023.3 hpa

54 %

1.6 km/h aus 117

4.8 km/h aus N

1.8 C

10.1 C

10.7 C

10.1 C

1 W/m

0.00 mm

18:50

10.6 C

1023.3 hpa

55 %

1.6 km/h aus 116

4.8 km/h aus N

1.9 C

10.0 C

10.6 C

10.0 C

0 W/m

0.00 mm

18:55

10.4 C

1023.3 hpa

56 %

3.2 km/h aus 116

6.4 km/h aus NNW

2.0 C

9.9 C

10.4 C

9.9 C

0 W/m

0.00 mm

19:00

10.3 C

1023.4 hpa

57 %

3.2 km/h aus 113

4.8 km/h aus NNW

2.2 C

9.8 C

10.3 C

9.8 C

0 W/m

0.00 mm

19:05

10.2 C

1023.4 hpa

58 %

3.2 km/h aus 115

6.4 km/h aus NW

2.3 C

9.7 C

10.2 C

9.7 C

0 W/m

0.00 mm

19:10

10.0 C

1023.4 hpa

59 %

3.2 km/h aus 116

8.0 km/h aus NW

2.3 C

9.6 C

10.0 C

9.6 C

0 W/m

0.00 mm

19:15

9.8 C

1023.4 hpa

60 %

3.2 km/h aus 117

6.4 km/h aus NNW

2.4 C

9.4 C

9.8 C

9.4 C

0 W/m

0.00 mm

19:20

9.7 C

1023.4 hpa

61 %

3.2 km/h aus 117

8.0 km/h aus NW

2.6 C

9.3 C

9.7 C

9.3 C

0 W/m

0.00 mm

19:25

9.6 C

1023.4 hpa

61 %

3.2 km/h aus 117

8.0 km/h aus NW

2.5 C

9.2 C

9.6 C

9.2 C

0 W/m

0.00 mm

19:30

9.5 C

1023.4 hpa

62 %

3.2 km/h aus 115

6.4 km/h aus NNW

2.6 C

9.1 C

9.5 C

9.1 C

0 W/m

0.00 mm

19:35

9.4 C

1023.4 hpa

62 %

3.2 km/h aus 114

6.4 km/h aus NNW

2.5 C

9.1 C

9.4 C

9.1 C

0 W/m

0.00 mm

19:40

9.3 C

1023.4 hpa

63 %

4.8 km/h aus 117

8.0 km/h aus NNW

2.6 C

8.7 C

9.1 C

8.9 C

0 W/m

0.00 mm

19:45

9.2 C

1023.4 hpa

64 %

3.2 km/h aus 116

4.8 km/h aus NNW

2.8 C

8.8 C

9.2 C

8.8 C

0 W/m

0.00 mm

19:50

9.1 C

1023.4 hpa

65 %

4.8 km/h aus 117

6.4 km/h aus NW

2.9 C

8.4 C

8.8 C

8.7 C

0 W/m

0.00 mm

19:55

9.0 C

1023.4 hpa

66 %

4.8 km/h aus 116

8.0 km/h aus NNW

3.0 C

8.3 C

8.7 C

8.7 C

0 W/m

0.00 mm

20:00

8.8 C

1023.5 hpa

66 %

6.4 km/h aus 114

9.7 km/h aus NNW

2.8 C

7.7 C

8.1 C

8.4 C

0 W/m

0.00 mm

20:05

8.8 C

1023.5 hpa

67 %

4.8 km/h aus 115

8.0 km/h aus N

3.0 C

8.1 C

8.4 C

8.4 C

0 W/m

0.00 mm

20:10

8.7 C

1023.5 hpa

68 %

4.8 km/h aus 117

6.4 km/h aus N

3.1 C

8.0 C

8.3 C

8.3 C

0 W/m

0.00 mm

20:15

8.6 C

1023.6 hpa

69 %

4.8 km/h aus 117

6.4 km/h aus NNW

3.2 C

7.9 C

8.2 C

8.3 C

0 W/m

0.00 mm

20:20

8.5 C

1023.6 hpa

70 %

4.8 km/h aus 117

9.7 km/h aus NNW

3.3 C

7.8 C

8.1 C

8.2 C

0 W/m

0.00 mm

20:25

8.4 C

1023.6 hpa

71 %

4.8 km/h aus 117

8.0 km/h aus NNW

3.4 C

7.7 C

8.0 C

8.1 C

0 W/m

0.00 mm

20:30

8.3 C

1023.8 hpa

72 %

4.8 km/h aus 116

8.0 km/h aus NNW

3.6 C

7.7 C

7.9 C

8.1 C

0 W/m

0.00 mm

20:35

8.3 C

1023.8 hpa

72 %

4.8 km/h aus 114

8.0 km/h aus NNW

3.5 C

7.7 C

7.9 C

8.1 C

0 W/m

0.00 mm

20:40

8.2 C

1023.8 hpa

73 %

6.4 km/h aus 117

9.7 km/h aus NNW

3.6 C

7.0 C

7.2 C

7.9 C

0 W/m

0.00 mm

20:45

8.1 C

1023.9 hpa

73 %

8.0 km/h aus 117

12.9 km/h aus NNW

3.6 C

6.6 C

6.8 C

7.9 C

0 W/m

0.00 mm

20:50

8.1 C

1023.9 hpa

75 %

8.0 km/h aus 117

16.1 km/h aus NNW

3.9 C

6.5 C

6.7 C

7.8 C

0 W/m

0.00 mm

20:55

8.0 C

1023.9 hpa

77 %

9.7 km/h aus 115

17.7 km/h aus N

4.2 C

6.2 C

6.3 C

7.8 C

0 W/m

0.00 mm

21:00

7.9 C

1023.8 hpa

78 %

9.7 km/h aus 113

16.1 km/h aus NNW

4.3 C

6.1 C

6.3 C

7.8 C

0 W/m

0.00 mm

21:05

7.9 C

1023.8 hpa

78 %

9.7 km/h aus 115

16.1 km/h aus N

4.3 C

6.1 C

6.3 C

7.8 C

0 W/m

0.00 mm

21:10

7.9 C

1023.8 hpa

79 %

6.4 km/h aus 116

12.9 km/h aus N

4.5 C

6.8 C

6.9 C

7.8 C

0 W/m

0.00 mm

21:15

7.8 C

1023.9 hpa

80 %

6.4 km/h aus 116

12.9 km/h aus NNW

4.6 C

6.7 C

6.8 C

7.7 C

0 W/m

0.00 mm

21:20

7.8 C

1023.9 hpa

80 %

6.4 km/h aus 116

11.3 km/h aus NNW

4.5 C

6.7 C

6.8 C

7.7 C

0 W/m

0.00 mm

21:25

7.7 C

1023.9 hpa

81 %

6.4 km/h aus 115

11.3 km/h aus NNW

4.7 C

6.6 C

6.7 C

7.6 C

0 W/m

0.00 mm

21:30

7.6 C

1023.9 hpa

81 %

6.4 km/h aus 114

11.3 km/h aus N

4.6 C

6.5 C

6.6 C

7.5 C

0 W/m

0.00 mm

21:35

7.6 C

1023.9 hpa

82 %

8.0 km/h aus 115

17.7 km/h aus N

4.7 C

6.1 C

6.1 C

7.5 C

0 W/m

0.00 mm

21:40

7.4 C

1023.9 hpa

82 %

6.4 km/h aus 114

11.3 km/h aus NNW

4.6 C

6.3 C

6.4 C

7.4 C

0 W/m

0.00 mm

21:45

7.4 C

1024.3 hpa

82 %

6.4 km/h aus 116

11.3 km/h aus N

4.5 C

6.3 C

6.3 C

7.3 C

0 W/m

0.00 mm

21:50

7.3 C

1024.3 hpa

82 %

4.8 km/h aus 115

9.7 km/h aus N

4.5 C

6.7 C

6.8 C

7.2 C

0 W/m

0.00 mm

21:55

7.2 C

1024.3 hpa

82 %

4.8 km/h aus 117

11.3 km/h aus N

4.4 C

6.6 C

6.7 C

7.1 C

0 W/m

0.00 mm

22:00

7.2 C

1024.0 hpa

83 %

3.2 km/h aus 117

6.4 km/h aus N

4.5 C

7.1 C

7.2 C

7.1 C

0 W/m

0.00 mm

22:05

7.1 C

1024.0 hpa

83 %

4.8 km/h aus 114

8.0 km/h aus N

4.4 C

6.4 C

6.5 C

7.0 C

0 W/m

0.00 mm

22:10

6.9 C

1024.0 hpa

83 %

3.2 km/h aus 114

8.0 km/h aus N

4.3 C

6.9 C

6.9 C

6.9 C

0 W/m

0.00 mm

22:15

6.8 C

1023.9 hpa

83 %

3.2 km/h aus 115

6.4 km/h aus N

4.1 C

6.8 C

6.8 C

6.8 C

0 W/m

0.00 mm

22:20

6.8 C

1023.9 hpa

83 %

1.6 km/h aus 117

4.8 km/h aus N

4.1 C

6.7 C

6.8 C

6.7 C

0 W/m

0.00 mm

22:25

6.7 C

1023.9 hpa

83 %

1.6 km/h aus 117

4.8 km/h aus N

4.0 C

6.7 C

6.7 C

6.7 C

0 W/m

0.00 mm

22:30

6.6 C

1023.8 hpa

83 %

1.6 km/h aus 117

4.8 km/h aus N

3.9 C

6.6 C

6.6 C

6.6 C

0 W/m

0.00 mm

22:35

6.6 C

1023.8 hpa

83 %

3.2 km/h aus 116

4.8 km/h aus N

3.9 C

6.5 C

6.6 C

6.5 C

0 W/m

0.00 mm

22:40

6.4 C

1023.8 hpa

84 %

1.6 km/h aus 116

4.8 km/h aus N

3.9 C

6.4 C

6.4 C

6.4 C

0 W/m

0.00 mm

22:45

6.4 C

1023.6 hpa

84 %

1.6 km/h aus 114

3.2 km/h aus N

3.9 C

6.3 C

6.4 C

6.3 C

0 W/m

0.00 mm

22:50

6.3 C

1023.6 hpa

84 %

1.6 km/h aus 116

3.2 km/h aus N

3.8 C

6.2 C

6.3 C

6.2 C

0 W/m

0.00 mm

22:55

6.2 C

1023.6 hpa

84 %

0.0 km/h aus 117

0.0 km/h aus ---

3.7 C

6.1 C

6.2 C

6.1 C

0 W/m

0.00 mm

23:00

6.1 C

1023.4 hpa

83 %

0.0 km/h aus 116

0.0 km/h aus ---

3.4 C

5.9 C

6.1 C

5.9 C

0 W/m

0.00 mm

23:05

5.9 C

1023.4 hpa

83 %

0.0 km/h aus 117

0.0 km/h aus ---

3.3 C

5.8 C

5.9 C

5.8 C

0 W/m

0.00 mm

23:10

5.8 C

1023.4 hpa

83 %

0.0 km/h aus 116

0.0 km/h aus ---

3.1 C

5.7 C

5.8 C

5.7 C

0 W/m

0.00 mm

23:15

5.6 C

1023.4 hpa

82 %

0.0 km/h aus 114

0.0 km/h aus ---

2.8 C

5.4 C

5.6 C

5.4 C

0 W/m

0.00 mm

23:20

5.4 C

1023.4 hpa

82 %

0.0 km/h aus 115

0.0 km/h aus ---

2.6 C

5.3 C

5.4 C

5.3 C

0 W/m

0.00 mm

23:25

5.3 C

1023.4 hpa

82 %

0.0 km/h aus 116

1.6 km/h aus N

2.5 C

5.1 C

5.3 C

5.1 C

0 W/m

0.00 mm

23:30

5.1 C

1023.4 hpa

82 %

0.0 km/h aus 117

0.0 km/h aus ---

2.3 C

4.9 C

5.1 C

4.9 C

0 W/m

0.00 mm

23:35

5.0 C

1023.4 hpa

82 %

0.0 km/h aus 117

3.2 km/h aus N

2.2 C

4.8 C

5.0 C

4.8 C

0 W/m

0.00 mm

23:40

4.8 C

1023.4 hpa

82 %

0.0 km/h aus 116

3.2 km/h aus N

2.0 C

4.7 C

4.8 C

4.7 C

0 W/m

0.00 mm

23:45

4.7 C

1023.7 hpa

82 %

0.0 km/h aus 117

0.0 km/h aus ---

1.9 C

4.5 C

4.7 C

4.5 C

0 W/m

0.00 mm

23:50

4.6 C

1023.7 hpa

82 %

0.0 km/h aus 114

1.6 km/h aus N

1.7 C

4.4 C

4.6 C

4.4 C

0 W/m

0.00 mm

23:55

4.4 C

1023.7 hpa

83 %

0.0 km/h aus 114

1.6 km/h aus N

1.8 C

4.3 C

4.4 C

4.3 C

0 W/m

0.00 mm